Showing default

QB50P1, 40025

Orbit data source: Space-Track

QB50P1, 40025 is a payload satellite owned by QB50 (BE) in SSO that was launched on Thu, 19 Jun 2014 UTC via a DNEPR launch vehicle from the Orenburg, Russia (OREN). Payload-class satellites include a variety of spacecraft equipped with specific instruments for various scientific and technological missions. These include communications satellites like Starlink; space stations such as the ISS; scientific satellites like the Hubble; Earth observation satellites from companies like Planet Labs, Umbra, and HawkEye 360; GPS; miniature CubeSats for education and research; and military/defense satellites.

Loading next visibility...
Identifier
40025, 2014-033R
Orbit
SSO
Country
Flag of BEBE / BEL
Related business
Manufacturer
ISIS BV
Mission
Operational Civil Science
Bus & Motor
CUBESAT 2U, Unknown motor
Mass
~2 kg wet, ~2 kg dry
Launch date (UTC)
2014-06-19 (12 years ago)
Launch vehicle
DNEPR
Launch site
Orenburg, Russia (OREN)
Object type
Payload
Rocket body
Debris
Shape & HBR
Box, 0.1 m
Radar Cross Section
0.040 m², Small (<0.1 m²)

Expand to show TLE details & history
Last TLE update: 16 hours ago

TLE from 16 hours ago
0 QB50P1
1 40025U 14033R   26123.91652668  .00009212  00000-0  46170-3 0  9994
2 40025  98.0978 131.9813 0009332  28.7684 331.4061 15.17571911646318
Epoch: 2026-05-03T21:59Z
TLE epoch observation values (Epoch: 2026-05-03T21:59:47.905Z)
Latitude
0.00003°
Longitude
-59.78152°
Altitude
510.601 km
Speed
7.612 km/s
True Right ascension
08h 47m 55s
True Declination
0° 00' 00"
Sunlit
Object was in daylight at epoch
Visualization orbit readout
Latitude
Unknown
Longitude
Unknown
Altitude
Unknown
Speed
Unknown
Apparent Right ascension
Unknown
Apparent Declination
Unknown
Sunlit
N/A
Visualization observer readout
Local Sidereal Time
21:20:08
Azimuth
Unknown
Elevation
Unknown
Doppler factor
Unknown
Orbital elements
Apogee altitude
516.61 km
Perigee altitude
503.753 km
Semi-major axis
6,888.318 km
Eccentricity
0.00093
Inclination
98.0978°
RAAN
131.9813°
Arg. of periapsis
28.7684°
True anomaly
331.35487°
Mean anomaly
331.4061°
Eccentric anomaly
331.38049°
Mean motion
3.79641 °/min
Orbital period
94.83 mins
BSTAR
0.0004617
Loading maneuver chart data...
Computing Atmospheric mass density...
Loading historical data...
Loading historical data...
Loading historical data...
Loading historical data...
Loading historical data...
Loading historical data...
Loading historical data...

Documentation

Showing up to 5 results
|